[[{"header":{"parameterUnit":"m.s-1","parameterCategory":1,"la1":30.2991,"la2":30.254,"lo1":-89.0895,"lo2":-89.0444,"dy":0.0017,"dx":0.0017,"nx":28,"ny":28,"refTime":"2026-02-01T09:00:00:Z","depth":0,"parameterNumber":2,"parameterNumberName":"U-component_of_WINDS"},"data":[0,0,0,0,0,0,0,0,0,0,0,0,0,0,0,0,0,0,0,0,0,0,0,0,0,0,0,0,0,0,0,0,0,0,0,0,0,0,0,0,0,0,0,0,0,0,0,0,0,0,0,0,0,0,0,0,0,0,1.6565,1.6566,0,1.6572,1.6572,1.6572,1.656,1.6559,1.6559,1.6559,1.6565,1.6566,1.6566,0,0,0,0,0,0,0,0,0,0,0,0,0,1.6542,1.6543,1.6565,1.6566,1.6566,1.6572,1.6572,1.6572,1.656,1.6559,1.6559,1.6559,1.6565,1.6565,1.6566,0,0,0,0,0,0,0,0,0,0,0,0,0,1.6551,1.6543,1.6565,1.656,1.656,1.6572,1.6572,1.6572,1.656,1.6559,1.6559,1.6558,1.6565,1.6565,1.6566,1.6584,0,0,1.6569,1.6569,0,0,0,0,0,0,0,0,1.6551,1.6552,1.6561,1.6561,1.656,1.6565,1.6566,1.6576,1.656,1.656,1.6559,1.6558,1.6565,1.6566,1.6569,1.6584,1.6584,1.6569,1.6569,1.657,1.657,0,0,0,0,0,0,0,1.655,1.6552,1.6568,1.6561,1.6561,1.6558,1.6558,1.6568,1.6566,1.656,1.6559,1.656,1.6565,1.6568,1.6569,1.6584,1.6569,1.657,1.657,1.657,1.6616,1.6617,0,0,0,0,0,0,1.655,1.6551,1.6568,1.6568,1.6554,1.6559,1.6559,1.6564,1.6566,1.6566,1.6561,1.6559,1.6567,1.6568,1.6569,1.659,1.657,1.657,1.6571,1.6615,1.6616,1.6617,0,0,0,0,0,0,1.655,1.6552,1.6568,1.656,1.6561,1.656,1.6565,1.6564,1.6567,1.6566,1.6566,1.6564,1.6566,1.6568,1.6581,1.659,1.6571,1.6572,1.6614,1.6616,1.6617,1.6632,0,0,0,0,0,0,1.6549,1.6551,1.6558,1.656,1.6562,1.6579,1.6565,1.6565,1.6569,1.6567,1.6569,1.6569,1.6566,1.6579,1.6581,1.6591,1.6572,1.6614,1.6615,1.6616,1.663,1.6633,1.6636,0,0,0,0,0,1.6548,1.6561,1.6558,1.656,1.657,1.6579,1.6581,1.6577,1.6569,1.6576,1.6576,1.6569,1.6589,1.6581,1.6583,1.6593,1.6613,1.6615,1.6616,1.6629,1.6633,1.6636,0,0,0,0,0,0,1.656,1.6561,1.6558,1.6572,1.6576,1.6577,1.6585,1.658,1.6586,1.6584,1.658,1.658,1.6594,1.6595,1.6586,1.6611,1.66,1.6602,1.6609,1.6612,1.6615,1.6614,1.6573,0,0,0,0,0,1.6564,1.6572,1.6573,1.6586,1.6588,1.6586,1.659,1.6588,1.6591,1.6592,1.6593,1.6596,1.6604,1.6608,1.6615,1.6631,1.6632,1.6639,1.6642,1.6644,1.6646,1.6655,1.6658,1.6622,1.6622,1.6622,0,0,1.6573,1.6575,1.658,1.6588,1.659,1.6599,1.6588,1.6596,1.6603,1.6593,1.6605,1.6607,1.661,1.6625,1.6632,1.6626,1.6656,1.6646,1.6648,1.6648,1.6657,1.666,1.6664,1.6623,1.6623,1.6623,0,0,1.6593,1.6595,1.6606,1.6609,1.6614,1.6613,1.6616,1.6619,1.6619,1.6631,1.6625,1.6633,1.6645,1.6648,1.6651,1.6675,1.6669,1.6678,1.6691,1.67,1.6703,1.6706,1.6714,1.6717,1.668,1.668,1.668,0,1.6603,1.6615,1.6612,1.6622,1.6626,1.662,1.6631,1.6634,1.664,1.6643,1.6638,1.6654,1.6656,1.6672,1.6678,1.6681,1.6684,1.6676,1.6703,1.6705,1.6708,1.6716,1.6719,1.6681,1.668,1.668,1.668,0,1.6627,1.6636,1.6644,1.6651,1.6657,1.6667,1.6666,1.6672,1.667,1.667,1.6683,1.6686,1.6693,1.6697,1.6695,1.6713,1.671,1.6704,1.6692,1.6712,1.6719,1.6723,1.6682,1.6682,1.6681,1.6681,0,0,1.6652,1.6659,1.6662,1.6666,1.6671,1.6678,1.6689,1.6697,1.6702,1.6707,1.6716,1.6728,1.6723,1.6727,1.6725,1.6733,1.6752,1.6726,1.6726,1.673,1.6773,1.6777,1.678,1.6749,1.675,1.675,1.6773,0,1.6671,1.669,1.6689,1.6707,1.6715,1.6711,1.672,1.6725,1.6726,1.6734,1.6735,1.6743,1.6736,1.6738,1.6747,1.6748,1.676,1.6747,1.6757,1.6757,1.6755,1.6784,1.6788,1.6809,1.6776,1.6776,1.6776,0,1.6696,1.6703,1.6722,1.6727,1.6731,1.6739,1.6747,1.6755,1.676,1.6761,1.6766,1.6763,1.6775,1.6765,1.6781,1.6772,1.6777,1.6778,1.6779,1.6779,1.6767,1.6784,1.6816,1.6818,1.6781,1.6781,1.678,0,1.6712,1.6726,1.6739,1.6742,1.6749,1.6756,1.6759,1.6764,1.6769,1.6777,1.678,1.6789,1.6793,1.68,1.68,1.6792,1.6816,1.6806,1.6817,1.6817,1.682,1.682,1.6852,1.6825,1.6825,1.6825,1.6825,0,1.6733,1.6744,1.6746,1.6754,1.6767,1.6767,1.678,1.6783,1.6788,1.6797,1.6794,1.6802,1.6802,1.681,1.6811,1.6824,1.6826,1.6827,1.6826,1.6826,1.6826,1.6828,1.6826,1.6826,1.6826,1.6826,1.6826,0,1.6751,1.6753,1.6767,1.6774,1.6776,1.6785,1.6791,1.6798,1.68,1.6812,1.6814,1.6817,1.6827,1.6829,1.684,1.684,1.6857,1.6855,1.6854,1.6854,1.6864,1.6863,1.6898,1.6902,1.6874,1.6874,1.6874,0,1.6764,1.6773,1.6781,1.6787,1.679,1.68,1.6806,1.6806,1.6813,1.6821,1.6828,1.6838,1.6846,1.6863,1.6866,1.6876,1.6874,1.6886,1.6875,1.6875,1.6873,1.6872,1.6873,1.6887,1.6887,1.6887,1.6888,0,1.6786,1.6787,1.6796,1.6805,1.6812,1.682,1.6827,1.6832,1.6834,1.6841,1.6852,1.6858,1.6871,1.6881,1.6891,1.6894,1.6891,1.6892,1.6894,1.6893,1.6892,1.6893,1.6859,1.689,1.689,1.689,1.689,1.6889,1.6801,1.6809,1.6817,1.6827,1.6832,1.684,1.6848,1.6851,1.686,1.6871,1.6871,1.6883,1.6891,1.6903,1.6908,1.6917,1.6913,1.6918,1.6918,1.6919,1.692,1.6892,1.6919,1.6919,1.6919,1.6919,1.6919,0,1.6823,1.6828,1.6837,1.6848,1.6856,1.6854,1.6862,1.6869,1.688,1.6887,1.6895,1.6908,1.6919,1.6924,1.6934,1.6941,1.694,1.6944,1.6942,1.6943,1.6923,1.6919,1.6944,1.6944,1.6944,1.6944,1.6944,1.6944,1.6834,1.6848,1.6851,1.6868,1.6873,1.6884,1.6889,1.6896,1.6902,1.6917,1.6926,1.693,1.6936,1.6947,1.6957,1.6959,1.6962,1.6966,1.6967,1.6947,1.6945,1.6942,1.6939,1.6967,1.6967,1.6986,1.6986,1.6987]},{"header":{"parameterUnit":"m.s-1","parameterCategory":1,"la1":30.2991,"la2":30.254,"lo1":-89.0895,"lo2":-89.0444,"dy":0.0017,"dx":0.0017,"nx":28,"ny":28,"refTime":"2026-02-01T09:00:00:Z","depth":0,"parameterNumber":3,"parameterNumberName":"V-component_of_WINDS"},"data":[0,0,0,0,0,0,0,0,0,0,0,0,0,0,0,0,0,0,0,0,0,0,0,0,0,0,0,0,0,0,0,0,0,0,0,0,0,0,0,0,0,0,0,0,0,0,0,0,0,0,0,0,0,0,0,0,0,0,-8.0977,-8.0979,0,-8.1226,-8.1229,-8.1232,-8.117,-8.1165,-8.1161,-8.1156,-8.1409,-8.1419,-8.1431,0,0,0,0,0,0,0,0,0,0,0,0,0,-8.0444,-8.0454,-8.0976,-8.098,-8.0983,-8.1226,-8.1229,-8.1233,-8.1171,-8.1165,-8.1159,-8.1154,-8.1405,-8.1418,-8.1432,0,0,0,0,0,0,0,0,0,0,0,0,0,-8.0683,-8.0458,-8.0976,-8.0981,-8.0984,-8.1225,-8.1229,-8.1234,-8.1172,-8.1165,-8.1158,-8.1151,-8.14,-8.1417,-8.1433,-8.1683,0,0,-8.1485,-8.1492,0,0,0,0,0,0,0,0,-8.0669,-8.0702,-8.0977,-8.0981,-8.0985,-8.116,-8.1134,-8.1384,-8.1174,-8.1101,-8.1156,-8.1147,-8.1331,-8.1354,-8.1416,-8.1695,-8.1706,-8.1487,-8.1497,-8.1504,-8.1509,0,0,0,0,0,0,0,-8.0653,-8.0691,-8.1075,-8.0982,-8.0986,-8.0971,-8.0997,-8.1181,-8.1254,-8.1107,-8.1103,-8.1133,-8.1332,-8.14,-8.1422,-8.171,-8.1486,-8.1501,-8.1511,-8.1518,-8.2207,-8.2215,0,0,0,0,0,0,-8.0633,-8.0678,-8.1067,-8.1083,-8.0806,-8.0986,-8.1015,-8.1111,-8.1252,-8.1266,-8.1139,-8.113,-8.1375,-8.1402,-8.143,-8.1733,-8.1504,-8.152,-8.1529,-8.2199,-8.2209,-8.2218,0,0,0,0,0,0,-8.0622,-8.0669,-8.1057,-8.0879,-8.0928,-8.1003,-8.1111,-8.112,-8.1188,-8.1276,-8.1289,-8.1196,-8.137,-8.1407,-8.1621,-8.1741,-8.1527,-8.1543,-8.2189,-8.2202,-8.2213,-8.234,0,0,0,0,0,0,-8.0607,-8.0665,-8.0761,-8.0882,-8.0937,-8.1245,-8.1119,-8.113,-8.1217,-8.1207,-8.1333,-8.1346,-8.1367,-8.1597,-8.1638,-8.176,-8.1556,-8.2179,-8.2195,-8.2209,-8.2326,-8.2355,-8.2381,0,0,0,0,0,-8.0588,-8.0786,-8.0767,-8.0814,-8.1059,-8.1252,-8.1284,-8.1305,-8.1227,-8.1325,-8.1382,-8.1342,-8.1721,-8.1619,-8.1665,-8.1795,-8.2171,-8.219,-8.2208,-8.2313,-8.2349,-8.238,0,0,0,0,0,0,-8.0676,-8.0802,-8.0782,-8.1024,-8.1128,-8.1241,-8.1365,-8.1342,-8.1469,-8.1454,-8.1474,-8.1503,-8.1722,-8.1779,-8.1664,-8.2044,-8.1935,-8.1963,-8.1999,-8.2034,-8.2061,-8.2043,-8.157,0,0,0,0,0,-8.0724,-8.0871,-8.0972,-8.1177,-8.123,-8.1289,-8.1373,-8.1381,-8.1489,-8.1532,-8.1605,-8.171,-8.1853,-8.1946,-8.2082,-8.2333,-8.236,-8.2445,-8.2472,-8.2495,-8.2519,-8.2657,-8.2696,-8.2278,-8.2278,-8.2278,0,0,-8.0824,-8.0911,-8.1002,-8.1197,-8.1278,-8.1429,-8.1326,-8.149,-8.1602,-8.1556,-8.1764,-8.1822,-8.194,-8.2175,-8.2281,-8.2229,-8.2641,-8.2518,-8.2535,-8.2548,-8.268,-8.272,-8.2755,-8.2291,-8.2288,-8.2286,0,0,-8.1084,-8.1164,-8.1344,-8.1428,-8.1553,-8.1591,-8.1634,-8.1751,-8.1788,-8.1997,-8.1966,-8.2099,-8.2345,-8.2431,-8.2507,-8.2801,-8.277,-8.2845,-8.2988,-8.3123,-8.3156,-8.3185,-8.3291,-8.3328,-8.2869,-8.2869,-8.2869,0,-8.1192,-8.1419,-8.1439,-8.1607,-8.1693,-8.166,-8.1842,-8.1922,-8.2085,-8.2146,-8.2085,-8.2393,-8.2471,-8.2725,-8.2797,-8.2859,-8.291,-8.2831,-8.3149,-8.3179,-8.3207,-8.3308,-8.3347,-8.2877,-8.2876,-8.2875,-8.2875,0,-8.1547,-8.1705,-8.1835,-8.1995,-8.2096,-8.227,-8.2316,-8.2416,-8.2414,-8.2459,-8.2672,-8.2764,-8.2919,-8.298,-8.2979,-8.3235,-8.3199,-8.3144,-8.3035,-8.3255,-8.335,-8.3389,-8.2889,-8.2886,-8.2884,-8.2882,0,0,-8.1869,-8.2038,-8.2085,-8.2158,-8.2294,-8.2416,-8.2589,-8.2742,-8.2827,-8.2941,-8.3086,-8.3295,-8.3246,-8.3332,-8.3341,-8.3459,-8.3687,-8.3389,-8.3392,-8.3442,-8.3976,-8.4017,-8.4062,-8.3667,-8.3674,-8.368,-8.3966,0,-8.2141,-8.2447,-8.247,-8.2745,-8.2892,-8.2863,-8.3013,-8.3112,-8.3158,-8.3289,-8.3339,-8.3487,-8.341,-8.3462,-8.3578,-8.3635,-8.3795,-8.3614,-8.3802,-8.3809,-8.3775,-8.4111,-8.4156,-8.4421,-8.4003,-8.401,-8.4014,0,-8.25,-8.2626,-8.2917,-8.3033,-8.3095,-8.3231,-8.3373,-8.3498,-8.361,-8.3635,-8.3733,-8.3726,-8.3903,-8.3787,-8.4031,-8.3908,-8.3986,-8.4026,-8.4037,-8.4056,-8.3926,-8.414,-8.4506,-8.4546,-8.4073,-8.4068,-8.4064,0,-8.2707,-8.2949,-8.3155,-8.3218,-8.3358,-8.3454,-8.3517,-8.3622,-8.3713,-8.3837,-8.3896,-8.4038,-8.4117,-8.4227,-8.4259,-8.4171,-8.4503,-8.4389,-8.4528,-8.4528,-8.46,-8.4595,-8.4984,-8.4649,-8.4648,-8.4648,-8.4647,0,-8.301,-8.3189,-8.325,-8.3377,-8.3576,-8.3601,-8.3797,-8.3854,-8.3948,-8.4085,-8.4068,-8.4196,-8.423,-8.4364,-8.439,-8.4589,-8.4624,-8.4649,-8.4654,-8.4652,-8.4649,-8.4704,-8.4687,-8.4658,-8.4656,-8.4654,-8.4652,0,-8.3275,-8.3323,-8.3546,-8.3661,-8.3694,-8.3837,-8.3935,-8.4057,-8.41,-8.4273,-8.4315,-8.4384,-8.4542,-8.4584,-8.4772,-8.4789,-8.5024,-8.5011,-8.4987,-8.4987,-8.5125,-8.5112,-8.5563,-8.5624,-8.5248,-8.5252,-8.5255,0,-8.3466,-8.3603,-8.3734,-8.3825,-8.3893,-8.4039,-8.4132,-8.4161,-8.4258,-8.4397,-8.4502,-8.4658,-8.4784,-8.5038,-8.5104,-8.5248,-8.5239,-8.5387,-8.526,-8.5254,-8.5243,-8.5235,-8.5249,-8.5411,-8.5415,-8.5419,-8.5421,0,-8.3799,-8.3817,-8.3952,-8.4097,-8.4209,-8.4324,-8.4433,-8.4509,-8.4553,-8.4663,-8.4826,-8.4924,-8.5117,-8.5272,-8.5418,-8.5481,-8.546,-8.5461,-8.5501,-8.55,-8.5481,-8.5495,-8.5054,-8.545,-8.5447,-8.5445,-8.5444,-8.5442,-8.4034,-8.4155,-8.4267,-8.4419,-8.4505,-8.4608,-8.4729,-8.4788,-8.4924,-8.5085,-8.5093,-8.5269,-8.5378,-8.5572,-8.5644,-8.5782,-8.5737,-8.5795,-8.581,-8.5824,-8.5837,-8.5459,-8.5808,-8.5807,-8.5806,-8.5806,-8.5805,0,-8.4368,-8.4438,-8.4577,-8.4733,-8.4853,-8.4822,-8.4943,-8.5044,-8.52,-8.5304,-8.5429,-8.5616,-8.5766,-8.5845,-8.5994,-8.609,-8.6083,-8.6128,-8.6122,-8.6137,-8.5867,-8.5818,-8.6131,-8.6131,-8.613,-8.613,-8.613,-8.613,-8.4555,-8.476,-8.479,-8.5037,-8.5106,-8.5279,-8.5351,-8.5446,-8.553,-8.5739,-8.5865,-8.5915,-8.6009,-8.6166,-8.6303,-8.6322,-8.6378,-8.6429,-8.6442,-8.6189,-8.6156,-8.6124,-8.6078,-8.644,-8.6441,-8.6701,-8.6703,-8.6705]}]]